Alamosa, CO

12:16 PM MDT on July 20, 2017 (GMT -0600)
San Luis Valley Regional / Bergman Field

Weather History for KALS - November, 2014

Change the Weather History Date:

Monday, November 17, 2014

  Actual Average Record
Temperature  
Mean Temperature 16 °F 29 °F  
Max Temperature 32 °F 46 °F 65 °F (1975)
Min Temperature -1 °F 12 °F -10 °F (1958)
Degree Days  
Heating Degree Days 49 36  
Month to date heating degree days 492 548  
Since 1 July heating degree days 1348 1658  
Cooling Degree Days 0 0  
Month to date cooling degree days 0 0  
Year to date cooling degree days 60 51  
Moisture  
Dew Point 2 °F    
Average Humidity 57    
Maximum Humidity 87    
Minimum Humidity 26    
Precipitation  
Precipitation 0.00 in 0.02 in 0.31 in (1971)
Month to date precipitation 0.32 0.27  
Year to date precipitation 5.31 6.81  
Snow  
Snow 0.00 in 0.10 in 5.10 in (1971)
Month to date snowfall 1.1 2.0  
Since 1 July snowfall 1.1 4.1  
Since 1 September snowfall 1.1 4.1  
Snow Depth 0.00 in    
Sea Level Pressure  
Sea Level Pressure 30.38 in    
Wind  
Wind Speed 4 mph (WSW)    
Max Wind Speed 9 mph    
Max Gust Speed 12 mph    
Visibility 10 miles    
Events      
T = Trace of Precipitation, MM = Missing Value Source: NWS Daily Summary

Daily Weather History Graph

Daily Weather History Graph

Search for Another Location

Airport or City:

Trip Planner

Search our weather history database for the weather conditions in past years. The results will help you decide how hot, cold, wet, or windy it might be!

Date:

Astronomy

Nov. 17, 2014 Rise Set
Actual Time 6:45 AM MST 4:51 PM MST
Civil Twilight 6:17 AM MST 5:19 PM MST
Nautical Twilight 5:45 AM MST 5:51 PM MST
Astronomical Twilight 5:14 AM MST 6:22 PM MST
Moon 1:55 AM MST (11/17) 2:11 PM MST (11/17)
Length of Visible Light 11h 02m
Length of Day
10h 06m
Waning Crescent, 22% of the Moon is Illuminated
Nov 17
Waning Crescent
Nov 22
New
Nov 29
First Quarter
Dec 6
Full
Dec 14
Last Quarter

Hourly Weather History & Observations

Time (MST) Temp. Windchill Dew Point Humidity Pressure Visibility Wind Dir Wind Speed Gust Speed Precip Events Conditions
12:52 AM 5.0 °F -5.6 °F -0.0 °F 80% 30.34 in 10.0 mi WSW 5.8 mph - N/A   Clear
1:52 AM 3.9 °F -6.9 °F -0.9 °F 80% 30.34 in 10.0 mi West 5.8 mph - N/A   Clear
2:52 AM 5.0 °F -5.6 °F 1.0 °F 84% 30.35 in 10.0 mi West 5.8 mph - N/A   Clear
3:52 AM 3.0 °F -10.5 °F -0.9 °F 84% 30.37 in 10.0 mi West 8.1 mph - N/A   Clear
4:52 AM 1.9 °F -7.6 °F -2.9 °F 80% 30.40 in 10.0 mi WSW 4.6 mph - N/A   Clear
5:52 AM 1.0 °F -6.7 °F -4.0 °F 79% 30.44 in 10.0 mi SW 3.5 mph - N/A   Clear
6:52 AM 1.0 °F - -5.1 °F 75% 30.47 in 10.0 mi Calm Calm - N/A   Clear
7:52 AM 7.0 °F 0.1 °F 1.0 °F 77% 30.47 in 10.0 mi WSW 3.5 mph - N/A   Clear
8:52 AM 17.1 °F 10.0 °F 8.1 °F 68% 30.43 in 10.0 mi SW 4.6 mph - N/A   Clear
9:52 AM 24.1 °F 18.2 °F 3.0 °F 40% 30.40 in 10.0 mi NE 4.6 mph - N/A   Clear
10:52 AM 24.8 °F - 1.4 °F 36% 30.24 in 10.0 mi Calm Calm - N/A   Clear
11:52 AM 26.6 °F - 1.4 °F 34% 30.21 in 10.0 mi Calm Calm - N/A   Clear
12:52 PM 28.9 °F 25.2 °F 1.0 °F 30% 30.35 in 10.0 mi SW 3.5 mph - N/A   Clear
1:52 PM 30.0 °F 26.5 °F 1.9 °F 30% 30.33 in 10.0 mi Variable 3.5 mph - N/A   Clear
2:52 PM 30.9 °F 26.2 °F 3.9 °F 32% 30.31 in 10.0 mi Variable 4.6 mph - N/A   Clear
3:52 PM 32.0 °F - 1.9 °F 28% 30.32 in 10.0 mi Calm Calm - N/A   Clear
4:52 PM 26.1 °F 19.4 °F 6.1 °F 43% 30.37 in 10.0 mi SW 5.8 mph - N/A   Clear
5:52 PM 23.0 °F 15.8 °F 9.0 °F 55% 30.40 in 10.0 mi SW 5.8 mph - N/A   Clear
6:52 PM 18.0 °F - 8.1 °F 65% 30.45 in 10.0 mi Calm Calm - N/A   Clear
7:52 PM 14.0 °F - 6.1 °F 71% 30.45 in 10.0 mi Calm Calm - N/A   Clear
8:52 PM 14.0 °F - 6.1 °F 71% 30.40 in 10.0 mi Calm Calm - N/A   Clear
9:52 PM 10.0 °F 1.8 °F 5.0 °F 80% 30.41 in 10.0 mi South 4.6 mph - N/A   Clear
10:52 PM 7.0 °F 0.1 °F 1.9 °F 80% 30.42 in 10.0 mi SW 3.5 mph - N/A   Clear
11:52 PM 6.1 °F -4.3 °F 1.9 °F 83% 30.42 in 10.0 mi WSW 5.8 mph - N/A   Clear